TimeCDT,TemperatureF,Dew PointF,Humidity,Sea Level PressureIn,VisibilityMPH,Wind Direction,Wind SpeedMPH,Gust SpeedMPH,PrecipitationIn,Events,Conditions,WindDirDegrees,DateUTC
12:53 AM,44.1,36.0,73,30.16,10.0,NNW,6.9,-,N/A,,Clear,340,2012-10-29 05:53:00
1:53 AM,45.0,35.1,68,30.16,10.0,NNW,6.9,-,N/A,,Clear,340,2012-10-29 06:53:00
2:53 AM,43.0,35.1,74,30.15,10.0,North,5.8,-,N/A,,Clear,350,2012-10-29 07:53:00
3:53 AM,41.0,34.0,76,30.15,10.0,NNW,4.6,-,N/A,,Clear,340,2012-10-29 08:53:00
4:53 AM,39.9,34.0,79,30.16,10.0,North,5.8,-,N/A,,Clear,350,2012-10-29 09:53:00
6:53 AM,37.9,34.0,86,30.19,10.0,NNW,4.6,-,N/A,,Clear,330,2012-10-29 11:53:00
7:53 AM,37.9,35.1,89,30.20,10.0,NNW,5.8,-,N/A,,Clear,330,2012-10-29 12:53:00
8:53 AM,46.0,34.0,63,30.21,10.0,North,6.9,-,N/A,,Clear,360,2012-10-29 13:53:00
9:53 AM,48.9,33.1,54,30.22,10.0,North,15.0,19.6,N/A,,Clear,360,2012-10-29 14:53:00
10:53 AM,53.1,30.9,43,30.21,10.0,North,12.7,20.7,N/A,,Clear,10,2012-10-29 15:53:00
11:53 AM,55.0,30.9,40,30.19,10.0,North,11.5,-,N/A,,Clear,360,2012-10-29 16:53:00
12:53 PM,57.0,30.0,36,30.17,10.0,North,13.8,25.3,N/A,,Clear,350,2012-10-29 17:53:00
1:53 PM,60.1,30.0,32,30.15,10.0,NNW,17.3,26.5,N/A,,Clear,340,2012-10-29 18:53:00
3:53 PM,60.1,26.1,27,30.10,10.0,NNW,16.1,23.0,N/A,,Clear,340,2012-10-29 20:53:00
4:53 PM,59.0,28.0,31,30.09,10.0,North,11.5,-,N/A,,Clear,360,2012-10-29 21:53:00
5:53 PM,55.9,28.9,36,30.09,10.0,NNW,11.5,-,N/A,,Clear,340,2012-10-29 22:53:00
6:53 PM,48.9,32.0,52,30.10,10.0,NNW,4.6,-,N/A,,Clear,330,2012-10-29 23:53:00
7:53 PM,48.0,32.0,54,30.12,10.0,NNW,4.6,-,N/A,,Clear,340,2012-10-30 00:53:00
8:53 PM,45.0,30.9,58,30.12,10.0,NNW,5.8,-,N/A,,Clear,330,2012-10-30 01:53:00
9:53 PM,45.0,30.9,58,30.13,10.0,NNW,8.1,-,N/A,,Clear,330,2012-10-30 02:53:00
10:53 PM,44.1,30.9,60,30.12,10.0,NNW,5.8,-,N/A,,Clear,330,2012-10-30 03:53:00
11:53 PM,44.1,32.0,63,30.11,10.0,NNW,4.6,-,N/A,,Clear,340,2012-10-30 04:53:00